Weather History for Port Angeles, WA

Change the Weather History Date:

Tuesday, January 28, 2014

  Actual Average Record
Temperature  
Mean Temperature 42 °F -  
Max Temperature 46 °F 45 °F 56 °F (1976)
Min Temperature 39 °F 34 °F 11 °F (1969)
Degree Days  
Heating Degree Days 22    
Moisture  
Dew Point 41 °F    
Average Humidity 93    
Maximum Humidity 100    
Minimum Humidity 86    
Precipitation  
Precipitation 0.35 in - - ()
Sea Level Pressure  
Sea Level Pressure 30.13 in    
Wind  
Wind Speed 3 mph (ESE)    
Max Wind Speed 6 mph    
Max Gust Speed -    
Visibility 7 miles    
Events Rain    
Averages and records for this station are not official NWS values.
T = Trace of Precipitation, MM = Missing Value Source: NWS Daily Summary

Daily Weather History Graph

Daily Weather History Graph

Search for Another Location

Airport:

Trip Planner

Search our weather history database for the weather conditions in past years. The results will help you decide how hot, cold, wet, or windy it might be!

Date:

Astronomy

Jan. 28, 2014 Rise Set
Actual Time 7:46 AM PST 5:07 PM PST
Civil Twilight 7:13 AM PST 5:41 PM PST
Nautical Twilight 6:35 AM PST 6:19 PM PST
Astronomical Twilight 5:58 AM PST 6:55 PM PST
Moon 5:36 AM PST (1/28) 3:01 PM PST (1/28)
Length of Visible Light 10h 28m
Length of Day
9h 20m
Waning Crescent, 6% of the Moon is Illuminated
Jan 28
Waning Crescent
Jan 30
New
Feb 6
First Quarter
Feb 14
Full
Feb 22
Last Quarter

Hourly Weather History & Observations

Time (PST) Temp. Windchill Dew Point Humidity Pressure Visibility Wind Dir Wind Speed Gust Speed Precip Events Conditions
12:53 AM 39.9 °F 36.7 °F 39.9 °F 100% 30.19 in 10.0 mi WSW 4.6 mph - N/A   Overcast
1:30 AM 39.0 °F 35.7 °F 39.0 °F 100% 30.20 in 10.0 mi WSW 4.6 mph - N/A   Overcast
1:39 AM 39.0 °F 35.7 °F 39.0 °F 100% 30.20 in 10.0 mi WSW 4.6 mph - N/A   Overcast
1:53 AM 39.9 °F 35.8 °F 39.9 °F 100% 30.20 in 10.0 mi WSW 5.8 mph - N/A   Overcast
2:53 AM 39.9 °F 35.8 °F 39.9 °F 100% 30.20 in 9.0 mi WSW 5.8 mph - N/A   Overcast
3:38 AM 39.9 °F 36.7 °F 39.9 °F 100% 30.19 in 7.0 mi WSW 4.6 mph - 0.00 in   Overcast
3:53 AM 41.0 °F 39.0 °F 41.0 °F 100% 30.19 in 8.0 mi WSW 3.5 mph - 0.00 in Rain Light Rain
4:19 AM 41.0 °F - 39.9 °F 96% 30.18 in 6.0 mi Calm Calm - 0.00 in   Overcast
4:53 AM 41.0 °F - 39.9 °F 96% 30.19 in 4.0 mi Calm Calm - 0.00 in   Overcast
5:53 AM 41.0 °F 38.0 °F 39.0 °F 93% 30.20 in 9.0 mi SW 4.6 mph - N/A   Overcast
6:53 AM 41.0 °F 39.0 °F 39.0 °F 93% 30.21 in 5.0 mi WSW 3.5 mph - N/A   Overcast
7:53 AM 41.0 °F - 39.9 °F 96% 30.21 in 5.0 mi Calm Calm - N/A   Overcast
8:18 AM 41.0 °F - 39.9 °F 96% 30.20 in 2.5 mi Calm Calm - N/A   Overcast
8:35 AM 41.0 °F - 39.0 °F 93% 30.20 in 4.0 mi Calm Calm - N/A   Overcast
8:53 AM 42.1 °F - 39.9 °F 92% 30.21 in 5.0 mi Calm Calm - N/A   Overcast
9:53 AM 43.0 °F - 42.1 °F 97% 30.21 in 8.0 mi Calm Calm - N/A   Overcast
10:53 AM 44.1 °F - 41.0 °F 89% 30.21 in - Calm Calm - N/A   Overcast
11:18 AM 44.1 °F - 41.0 °F 89% 30.19 in 10.0 mi Calm Calm - N/A   Overcast
11:27 AM 45.0 °F - 42.1 °F 90% 30.18 in 9.0 mi Calm Calm - N/A   Overcast
11:53 AM 46.0 °F - 42.1 °F 86% 30.19 in 10.0 mi Calm Calm - N/A   Overcast
12:53 PM 45.0 °F 42.6 °F 42.1 °F 90% 30.17 in 10.0 mi NNE 4.6 mph - N/A   Overcast
1:07 PM 45.0 °F 43.5 °F 42.1 °F 90% 30.16 in 10.0 mi NNE 3.5 mph - N/A   Overcast
1:19 PM 45.0 °F 43.5 °F 42.1 °F 90% 30.16 in 10.0 mi NE 3.5 mph - N/A   Overcast
1:53 PM 45.0 °F - 42.1 °F 90% 30.17 in 10.0 mi Calm Calm - N/A   Overcast
2:13 PM 45.0 °F - 41.0 °F 86% 30.16 in 10.0 mi Calm Calm - N/A   Overcast
2:21 PM 46.0 °F 44.8 °F 42.1 °F 86% 30.16 in 10.0 mi ENE 3.5 mph - N/A   Overcast
2:30 PM 45.0 °F 42.6 °F 41.0 °F 86% 30.15 in 10.0 mi East 4.6 mph - N/A   Overcast
2:53 PM 45.0 °F 42.6 °F 41.0 °F 86% 30.15 in 10.0 mi ESE 4.6 mph - N/A   Overcast
3:53 PM 45.0 °F 42.6 °F 41.0 °F 86% 30.14 in 10.0 mi East 4.6 mph - N/A   Overcast
4:53 PM 44.1 °F 42.5 °F 42.1 °F 93% 30.14 in 6.0 mi East 3.5 mph - N/A   Overcast
5:53 PM 44.1 °F 41.5 °F 42.1 °F 93% 30.10 in 7.0 mi ESE 4.6 mph - N/A   Overcast
6:53 PM 44.1 °F 40.8 °F 42.1 °F 93% 30.06 in 5.0 mi ESE 5.8 mph - N/A   Overcast
7:26 PM 44.1 °F 41.5 °F 42.1 °F 93% 30.04 in 2.5 mi ESE 4.6 mph - N/A   Overcast
7:53 PM 44.1 °F 42.5 °F 42.1 °F 93% 30.04 in 4.0 mi ESE 3.5 mph - N/A   Overcast
8:27 PM 44.1 °F 42.5 °F 42.1 °F 93% 30.03 in 5.0 mi ESE 3.5 mph - 0.02 in Rain Light Rain
8:53 PM 44.1 °F 42.5 °F 42.1 °F 93% 30.03 in 3.0 mi ESE 3.5 mph - 0.07 in Rain Light Rain
9:02 PM 43.0 °F - 42.1 °F 97% 30.02 in 2.5 mi Calm Calm - 0.01 in Rain Light Rain
9:21 PM 44.1 °F 41.5 °F 42.1 °F 93% 30.01 in 3.0 mi East 4.6 mph - 0.05 in Rain Light Rain
9:45 PM 44.1 °F 41.5 °F 42.1 °F 93% 30.00 in 4.0 mi ESE 4.6 mph - 0.08 in Rain Light Rain
9:53 PM 44.1 °F 41.5 °F 42.1 °F 93% 30.00 in 4.0 mi ESE 4.6 mph - 0.09 in Rain Light Rain
10:08 PM 44.1 °F 42.5 °F 42.1 °F 93% 29.99 in 3.0 mi ESE 3.5 mph - 0.02 in Rain Light Rain
10:24 PM 44.1 °F 41.5 °F 42.1 °F 93% 29.98 in 4.0 mi ESE 4.6 mph - 0.06 in Rain Light Rain
10:53 PM 44.1 °F 41.5 °F 42.1 °F 93% 29.97 in 4.0 mi East 4.6 mph - 0.11 in Rain Light Rain
11:43 PM 44.1 °F 40.8 °F 42.1 °F 93% 29.93 in 1.8 mi East 5.8 mph - 0.07 in Rain Light Rain
11:53 PM 44.1 °F 40.8 °F 42.1 °F 93% 29.92 in 2.0 mi East 5.8 mph - 0.08 in Rain Light Rain